Hourly Weather Roundup
Issued by NWS Central Illinois

Home | Current Version | Previous Version | Text Only | Print | Product List | Glossary On
Versions: 1 2 3 4 5 6 7 8 9 10 11 12 13 14 15 16 17 18 19 20 21 22 23 24 25 26 27 28 29 30 31 32 33 34 35 36 37 38 39 40 41 42 43 44 45 46 47 48 49 50
000
NZUS43 KILX 262010
HWRILX

AREA WEATHER ROUNDUP
NATIONAL WEATHER SERVICE, LINCOLN IL
300 PM CDT TUE MAY 26 2015


CITY           SKY/WX    TMP DP  RH WIND       PRES   REMARKS
BLOOMINGTON    PTSUNNY   77  62  59 SW25G35   29.84F
CHAMPAIGN      MOSUNNY   78  64  61 SW24G31   29.86F HX  80
DANVILLE       PTSUNNY   75  66  74 SW22G30   29.85F
DECATUR        MOSUNNY   78  62  57 SW18G30   29.87S HX  80
EFFINGHAM      PTSUNNY   77  54  44 S20G30    29.93S
FLORA          MOSUNNY   79  60  50 SW24G35   29.94S HX  80
GALESBURG      MOSUNNY   73  61  66 SW24G32   29.80S
JACKSONVILLE   PTSUNNY   76  65  68 SW16G24   29.87F
LACON          LGT RAIN  66  62  87 SW10G24   29.80R
LAWRENCEVILLE  PTSUNNY   82  60  47 SW25G35   29.93F HX  82
LITCHFIELD     PTSUNNY   74  60  63 SW22G28   29.90F
$$


CITY           SKY/WX    TMP DP  RH WIND       PRES   REMARKS
LINCOLN        LGT RAIN  76  61  59 W16G25    29.84R
MACOMB         PTSUNNY   73  62  68 SW18G26   29.84S
MATTOON        MOSUNNY   77  62  59 SW13G33   29.89F
MT CARMEL AP   PTSUNNY   82  54  36 SW24G32   29.93R HX  81
OLNEY-NOBLE AP PTSUNNY   79  59  50 SW15G24   29.94S HX  80
PARIS          PTSUNNY   82  60  47 SW18G33   29.90F HX  82
PEORIA         CLOUDY    73  64  73 SW15G24   29.82S
PONTIAC        CLOUDY    76  66  72 SW21G29   29.82S
RANTOUL        PTSUNNY   78  67  69 SW17G24   29.85F HX  80
ROBINSON       PTSUNNY   81  60  48 SW25G32   29.93S HX  82
SPRINGFIELD    LGT RAIN  71  64  78 W21G28    29.88R
TAYLORVILLE    MOSUNNY   75  61  60 SW22G29   29.88S
$$

...REGIONAL REPORTS...


CITY           SKY/WX    TMP DP  RH WIND       PRES   REMARKS
CHICAGO O`HARE PTSUNNY   72  62  71 SW18G28   29.78F
KANKAKEE       PTSUNNY   75  66  74 S20G28    29.83F
MOLINE         PTSUNNY   73  60  63 W20G30    29.74R
MOUNT VERNON   CLOUDY    75  61  60 S23G29    29.96S
PITTSFIELD     MOSUNNY   76  61  60 SW15G22   29.89R
QUINCY         MOSUNNY   76  61  59 SW17G23   29.85S
ROCKFORD       PTSUNNY   75  62  64 S18G29    29.74F
$$


CITY           SKY/WX    TMP DP  RH WIND       PRES   REMARKS
BURLINGTON     PTSUNNY   73  63  70 W15G23    29.81R
CEDAR RAPIDS   PTSUNNY   68  63  84 W21       29.75R
DES MOINES     CLOUDY    69  60  73 SW10      29.80R
KIRKSVILLE     PTSUNNY   74  61  63 SW17      29.86R
OTTUMWA        PTSUNNY   71  62  73 SW15      29.81R
ST LOUIS       PTSUNNY   78  61  55 SW14G26   29.92F HX  80
$$


CITY           SKY/WX    TMP DP  RH WIND       PRES   REMARKS
TERRE HAUTE    PTSUNNY   80  62  54 SW18G33   29.90F HX  81
EVANSVILLE     PTSUNNY   79  63  57 S20       29.97F HX  80
INDIANAPOLIS   CLOUDY    73  65  75 S18       29.91F
LAFAYETTE      CLOUDY    73  64  73 W10G20    29.86F
MADISON        PTSUNNY   72  61  68 S13G18    29.68F
MILWAUKEE      CLOUDY    69  67  93 S10       29.73F
$$





USA.gov is the U.S. government's official web portal to all federal, state and local government web resources and services.